Printer-friendly version

IAU Minor Planet Center

Minor Planet Center

P/2008 J2 (Beshore)

Orbital Elements

The following orbital elements are taken from MPC 63376:
P/2008 J2 (Beshore)
Epoch 2008 Apr. 4.0 TT = JDT 2454560.5
T 2008 Mar. 20.8454 TT                                  MPC
q   2.410282             (2000.0)            P               Q
n   0.1517823      Peri.  131.8083      -0.6295403      +0.7566749
a   3.480609       Node    98.2986      -0.7552099      -0.5425717
e   0.307511       Incl.   10.2697      -0.1825844      -0.3647726
P   6.49
From 453 observations 2008 May 6-July 7, mean residual 0".6.
Elements are also available for the current standard epoch:
P/2008 J2 (Beshore)
Epoch 2010 Jan. 4.0 TT = JDT 2455200.5
T 2008 Mar. 20.3501 TT                                  MPC
q   2.399428             (2000.0)            P               Q
n   0.1519892      Peri.  131.4777      -0.6358602      +0.7514277
a   3.477450       Node    98.1538      -0.7505089      -0.5487402
e   0.310004       Incl.   10.2519      -0.1800507      -0.3663886
P   6.48
An explanation of the orbital elements is available.

These orbital elements are also available in forms suitable for loading into a number of popular planetarium-type software programs.


Ephemeris

The following ephemeris is at intervals of five days. A daily ephemeris covering the same time interval is also available.

Personalized ephemerides for this (and other) objects may be generated using the Minor Planet & Comet Ephemeris Service.

Recent magnitude estimates for this comet (as reported to the ICQ) may be available.

Date    TT    R. A. (2000) Decl.     Delta      r     Elong.  Phase   m1    m2

WARNING!

This comet gets close to the sun during the period covered in the ephemeris below. Observers are warned to be wary of observing comets near the sun. NEVER point any kind of optical instrument at the sun--instant blindness will be the probable result.

2009 10 26 23 03.92 -19 02.6 3.101 3.773 126.1 12.3 17.2 2009 10 31 23 03.15 -18 53.6 3.175 3.786 121.2 13.0 17.3 2009 11 05 23 02.82 -18 41.7 3.252 3.799 116.4 13.5 17.4 2009 11 10 23 02.92 -18 27.0 3.333 3.811 111.6 14.0 17.4 2009 11 15 23 03.45 -18 09.8 3.416 3.823 107.0 14.3 17.5 2009 11 20 23 04.38 -17 50.3 3.501 3.836 102.4 14.6 17.6 2009 11 25 23 05.71 -17 28.7 3.587 3.848 97.8 14.7 17.6 2009 11 30 23 07.41 -17 05.2 3.674 3.860 93.4 14.8 17.7 2009 12 05 23 09.46 -16 39.9 3.761 3.872 89.0 14.7 17.8 2009 12 10 23 11.83 -16 13.1 3.848 3.884 84.7 14.6 17.8 2009 12 15 23 14.50 -15 44.9 3.935 3.896 80.5 14.4 17.9 2009 12 20 23 17.46 -15 15.4 4.021 3.907 76.3 14.2 17.9 2009 12 25 23 20.67 -14 44.8 4.106 3.919 72.2 13.8 18.0 2009 12 30 23 24.12 -14 13.2 4.189 3.931 68.2 13.4 18.1 2010 01 04 23 27.78 -13 40.8 4.269 3.942 64.2 13.0 18.1 2010 01 09 23 31.64 -13 07.6 4.348 3.953 60.2 12.5 18.2 2010 01 14 23 35.68 -12 33.7 4.424 3.965 56.3 11.9 18.2 2010 01 19 23 39.88 -11 59.3 4.497 3.976 52.5 11.3 18.3 2010 01 24 23 44.22 -11 24.5 4.567 3.987 48.7 10.7 18.3 2010 01 29 23 48.69 -10 49.3 4.634 3.998 44.9 10.0 18.3 2010 02 03 23 53.27 -10 13.8 4.697 4.008 41.2 9.3 18.4 2010 02 08 23 57.95 -09 38.1 4.756 4.019 37.6 8.6 18.4 2010 02 13 00 02.72 -09 02.4 4.811 4.030 33.9 7.9 18.5 2010 02 18 00 07.57 -08 26.6 4.862 4.040 30.4 7.1 18.5 2010 02 23 00 12.48 -07 51.0 4.909 4.051 26.9 6.3 18.5 2010 02 28 00 17.45 -07 15.5 4.951 4.061 23.4 5.6 18.6 2010 03 05 00 22.46 -06 40.2 4.989 4.071 20.1 4.8 18.6 2010 03 10 00 27.50 -06 05.2 5.022 4.082 16.9 4.0 18.6 2010 03 15 00 32.57 -05 30.7 5.050 4.092 13.8 3.3 18.6 2010 03 20 00 37.66 -04 56.5 5.074 4.102 11.2 2.7 18.7 2010 03 25 00 42.75 -04 22.9 5.093 4.111 9.2 2.2 18.7 2010 03 30 00 47.84 -03 50.0 5.107 4.121 8.3 2.0 18.7 2010 04 04 00 52.92 -03 17.6 5.116 4.131 8.8 2.1 18.7 2010 04 09 00 57.99 -02 46.1 5.121 4.140 10.6 2.5 18.7 2010 04 14 01 03.03 -02 15.3 5.120 4.150 13.1 3.1 18.7 2010 04 19 01 08.04 -01 45.4 5.115 4.159 16.0 3.8 18.7 2010 04 24 01 13.01 -01 16.4 5.106 4.168 19.1 4.5 18.7 2010 04 29 01 17.92 -00 48.5 5.091 4.177 22.3 5.3 18.7 2010 05 04 01 22.78 -00 21.6 5.072 4.186 25.6 6.0 18.7 2010 05 09 01 27.57 +00 04.2 5.049 4.195 29.0 6.7 18.7 2010 05 14 01 32.28 +00 28.8 5.021 4.204 32.5 7.4 18.7 2010 05 19 01 36.91 +00 52.1 4.990 4.213 35.9 8.1 18.7 2010 05 24 01 41.43 +01 14.2 4.954 4.221 39.4 8.8 18.7 2010 05 29 01 45.85 +01 34.8 4.914 4.230 43.0 9.4 18.7 2010 06 03 01 50.15 +01 54.1 4.871 4.238 46.6 10.0 18.7 2010 06 08 01 54.32 +02 11.9 4.824 4.246 50.2 10.6 18.7 2010 06 13 01 58.35 +02 28.1 4.773 4.254 53.9 11.1 18.7 2010 06 18 02 02.22 +02 42.8 4.720 4.262 57.6 11.6 18.7 2010 06 23 02 05.91 +02 55.8 4.663 4.270 61.4 12.1 18.6 2010 06 28 02 09.42 +03 07.1 4.604 4.278 65.2 12.5 18.6 2010 07 03 02 12.74 +03 16.7 4.543 4.286 69.0 12.8 18.6 2010 07 08 02 15.83 +03 24.5 4.480 4.294 73.0 13.1 18.6 2010 07 13 02 18.69 +03 30.5 4.415 4.301 77.0 13.3 18.6 2010 07 18 02 21.30 +03 34.6 4.348 4.308 81.0 13.5 18.5 2010 07 23 02 23.64 +03 36.9 4.281 4.316 85.2 13.6 18.5 2010 07 28 02 25.70 +03 37.2 4.213 4.323 89.4 13.6 18.5 2010 08 02 02 27.45 +03 35.6 4.144 4.330 93.7 13.5 18.5 2010 08 07 02 28.89 +03 32.1 4.077 4.337 98.1 13.4 18.4 2010 08 12 02 29.98 +03 26.7 4.009 4.344 102.5 13.2 18.4 2010 08 17 02 30.73 +03 19.4 3.944 4.350 107.1 12.9 18.4 2010 08 22 02 31.11 +03 10.2 3.879 4.357 111.8 12.5 18.3 2010 08 27 02 31.12 +02 59.3 3.818 4.364 116.5 12.0 18.3 2010 09 01 02 30.75 +02 46.7 3.759 4.370 121.4 11.4 18.3 2010 09 06 02 29.99 +02 32.6 3.703 4.376 126.3 10.7 18.3 2010 09 11 02 28.86 +02 17.1 3.652 4.382 131.3 9.9 18.2 2010 09 16 02 27.35 +02 00.4 3.605 4.389 136.4 9.1 18.2 2010 09 21 02 25.49 +01 42.8 3.564 4.394 141.5 8.2 18.2 2010 09 26 02 23.29 +01 24.6 3.528 4.400 146.6 7.2 18.2 2010 10 01 02 20.80 +01 05.9 3.499 4.406 151.7 6.2 18.2 2010 10 06 02 18.04 +00 47.3 3.476 4.412 156.6 5.2 18.2 2010 10 11 02 15.06 +00 28.9 3.460 4.417 161.2 4.2 18.1 2010 10 16 02 11.91 +00 11.2 3.452 4.423 165.1 3.3 18.1 2010 10 21 02 08.65 -00 05.4 3.451 4.428 167.4 2.8 18.2 2010 10 26 02 05.34 -00 20.7 3.458 4.433 167.3 2.8 18.2 2010 10 31 02 02.05 -00 34.2 3.472 4.438 164.8 3.4 18.2 2010 11 05 01 58.82 -00 45.8 3.494 4.443 160.9 4.2 18.2 2010 11 10 01 55.71 -00 55.2 3.524 4.448 156.2 5.2 18.2 2010 11 15 01 52.80 -01 02.2 3.561 4.453 151.1 6.2 18.2 2010 11 20 01 50.12 -01 06.6 3.604 4.457 145.9 7.1 18.3 2010 11 25 01 47.71 -01 08.5 3.654 4.462 140.7 8.1 18.3 2010 11 30 01 45.60 -01 07.7 3.710 4.466 135.4 8.9 18.3

Valid HTML 4.01!